[[{"header":{"parameterUnit":"m.s-1","parameterCategory":1,"la1":30.2991,"la2":30.254,"lo1":-89.0895,"lo2":-89.0444,"dy":0.0017,"dx":0.0017,"nx":28,"ny":28,"refTime":"2024-10-16T21:00:00:Z","depth":0,"parameterNumber":2,"parameterNumberName":"U-component_of_WINDS"},"data":[0,0,0,0,0,0,0,0,0,0,0,0,0,0,0,0,0,0,0,0,0,0,0,0,0,0,0,0,0,0,0,0,0,0,0,0,0,0,0,0,0,0,0,0,0,0,0,0,0,0,0,0,0,0,0,0,0,0,-4.3355,-4.3356,0,-4.3404,-4.3404,-4.3405,-4.3291,-4.3288,-4.3284,-4.3281,-4.3327,-4.3332,-4.3336,0,0,0,0,0,0,0,0,0,0,0,0,0,-4.3161,-4.3165,-4.3355,-4.3356,-4.3357,-4.3404,-4.3404,-4.3405,-4.3292,-4.3288,-4.3283,-4.3279,-4.3326,-4.3331,-4.3337,0,0,0,0,0,0,0,0,0,0,0,0,0,-4.3231,-4.3166,-4.3355,-4.3306,-4.3302,-4.3404,-4.3404,-4.3405,-4.3293,-4.3288,-4.3282,-4.3277,-4.3324,-4.3331,-4.3337,-4.3488,0,0,-4.3358,-4.3361,0,0,0,0,0,0,0,0,-4.3227,-4.3238,-4.3313,-4.331,-4.3305,-4.3336,-4.3353,-4.3433,-4.3294,-4.3296,-4.3281,-4.3274,-4.3334,-4.334,-4.3361,-4.349,-4.3492,-4.3359,-4.3363,-4.3366,-4.3368,0,0,0,0,0,0,0,-4.3222,-4.3235,-4.3374,-4.3314,-4.3309,-4.328,-4.3284,-4.3367,-4.3345,-4.3296,-4.3288,-4.3295,-4.3331,-4.3355,-4.3361,-4.3493,-4.3359,-4.3365,-4.3369,-4.3372,-4.3745,-4.375,0,0,0,0,0,0,-4.3224,-4.3232,-4.3373,-4.3376,-4.3252,-4.3288,-4.3292,-4.3332,-4.3344,-4.334,-4.33,-4.329,-4.3345,-4.3353,-4.3362,-4.3536,-4.3366,-4.3373,-4.3377,-4.3739,-4.3746,-4.3752,0,0,0,0,0,0,-4.322,-4.3238,-4.3371,-4.3302,-4.3316,-4.3297,-4.3342,-4.3335,-4.3358,-4.3347,-4.3342,-4.3328,-4.3341,-4.3353,-4.3457,-4.3536,-4.3376,-4.3382,-4.3732,-4.3741,-4.3749,-4.3888,0,0,0,0,0,0,-4.3215,-4.3237,-4.3295,-4.3304,-4.3321,-4.3467,-4.3347,-4.334,-4.3371,-4.3358,-4.3372,-4.3369,-4.3338,-4.3447,-4.3464,-4.3543,-4.3387,-4.3725,-4.3736,-4.3746,-4.3876,-4.39,-4.3921,0,0,0,0,0,-4.3209,-4.3332,-4.3299,-4.3316,-4.3393,-4.3471,-4.3481,-4.3444,-4.3378,-4.3435,-4.3427,-4.3368,-4.3526,-4.3459,-4.3477,-4.3559,-4.372,-4.3733,-4.3746,-4.3866,-4.3896,-4.3921,0,0,0,0,0,0,-4.3333,-4.3333,-4.3295,-4.3426,-4.345,-4.3452,-4.3523,-4.3477,-4.3519,-4.3505,-4.3456,-4.346,-4.3573,-4.3577,-4.3502,-4.3704,-4.3611,-4.3629,-4.3697,-4.3725,-4.3747,-4.3742,-4.3393,0,0,0,0,0,-4.3376,-4.344,-4.3436,-4.3552,-4.3566,-4.3543,-4.3576,-4.3545,-4.3567,-4.3576,-4.3576,-4.3599,-4.3653,-4.369,-4.3739,-4.3877,-4.3877,-4.3943,-4.3965,-4.3984,-4.3998,-4.4068,-4.4096,-4.3795,-4.3795,-4.3795,0,0,-4.3464,-4.3472,-4.3516,-4.3577,-4.3592,-4.3658,-4.3552,-4.3627,-4.3675,-4.3587,-4.3685,-4.3687,-4.3708,-4.383,-4.3883,-4.3836,-4.4081,-4.4,-4.4015,-4.4019,-4.4084,-4.4112,-4.4138,-4.3804,-4.3802,-4.3801,0,0,-4.3658,-4.3672,-4.3768,-4.3785,-4.3809,-4.3793,-4.3817,-4.3826,-4.3823,-4.3922,-4.3856,-4.3912,-4.4008,-4.4025,-4.4046,-4.4247,-4.4193,-4.4265,-4.438,-4.4449,-4.4473,-4.4494,-4.4562,-4.4587,-4.428,-4.428,-4.428,0,-4.3764,-4.3862,-4.3823,-4.3903,-4.393,-4.3855,-4.395,-4.3969,-4.4008,-4.4028,-4.3975,-4.4092,-4.4102,-4.4224,-4.4273,-4.4294,-4.4317,-4.4261,-4.4473,-4.4493,-4.4512,-4.4576,-4.4602,-4.4288,-4.4287,-4.4287,-4.4286,0,-4.399,-4.406,-4.4134,-4.4173,-4.421,-4.4297,-4.4269,-4.4311,-4.4278,-4.4267,-4.4366,-4.4375,-4.4424,-4.4452,-4.442,-4.4569,-4.4539,-4.4482,-4.4386,-4.455,-4.4609,-4.4633,-4.43,-4.4297,-4.4295,-4.4293,0,0,-4.4261,-4.4278,-4.4306,-4.4322,-4.4343,-4.4394,-4.4478,-4.4526,-4.4561,-4.4591,-4.4657,-4.474,-4.4685,-4.471,-4.468,-4.4741,-4.4895,-4.4674,-4.4674,-4.4712,-4.5056,-4.5096,-4.5126,-4.4861,-4.4865,-4.4869,-4.5052,0,-4.445,-4.4593,-4.456,-4.4701,-4.4762,-4.4692,-4.4764,-4.4784,-4.4776,-4.4826,-4.4817,-4.4875,-4.4801,-4.4815,-4.4872,-4.4864,-4.4962,-4.4851,-4.4919,-4.4921,-4.4911,-4.5157,-4.5201,-4.5373,-4.5076,-4.508,-4.5083,0,-4.4689,-4.4728,-4.4875,-4.4883,-4.4908,-4.4974,-4.5014,-4.5064,-4.5084,-4.5074,-4.5102,-4.5059,-4.5139,-4.5047,-4.5154,-4.5079,-4.5105,-4.5106,-4.5111,-4.5113,-4.5009,-4.5162,-4.5428,-4.5453,-4.5119,-4.5117,-4.5114,0,-4.4867,-4.4957,-4.5055,-4.5071,-4.5085,-4.5132,-4.514,-4.5155,-4.5186,-4.5222,-4.524,-4.5285,-4.5309,-4.5343,-4.5313,-4.5249,-4.5425,-4.5331,-4.5416,-4.5416,-4.5453,-4.545,-4.5723,-4.5477,-4.5476,-4.5476,-4.5475,0,-4.5079,-4.5171,-4.5135,-4.5195,-4.5295,-4.5256,-4.5355,-4.5355,-4.5369,-4.5426,-4.537,-4.5424,-4.5383,-4.5434,-4.5411,-4.5502,-4.5514,-4.5506,-4.5498,-4.5509,-4.551,-4.5522,-4.5508,-4.5483,-4.5481,-4.548,-4.5479,0,-4.5293,-4.5274,-4.5376,-4.5381,-4.5384,-4.5457,-4.546,-4.5515,-4.5504,-4.5577,-4.5592,-4.5573,-4.563,-4.5605,-4.5665,-4.5649,-4.5765,-4.5743,-4.5758,-4.5751,-4.5836,-4.5827,-4.6123,-4.6159,-4.5894,-4.5896,-4.5899,0,-4.5428,-4.5497,-4.5509,-4.5544,-4.5556,-4.5613,-4.5644,-4.5608,-4.5642,-4.567,-4.5721,-4.5774,-4.5813,-4.5907,-4.5897,-4.5942,-4.5918,-4.602,-4.5924,-4.5932,-4.5915,-4.591,-4.5915,-4.6037,-4.604,-4.6043,-4.6045,0,-4.5668,-4.5654,-4.5701,-4.5745,-4.5784,-4.5817,-4.5844,-4.5876,-4.5841,-4.5882,-4.594,-4.5971,-4.6031,-4.6083,-4.6122,-4.6128,-4.608,-4.6076,-4.6097,-4.6106,-4.611,-4.6105,-4.5805,-4.6068,-4.6065,-4.6064,-4.6063,-4.6062,-4.5843,-4.59,-4.5917,-4.5971,-4.5988,-4.6015,-4.6066,-4.6061,-4.6109,-4.6156,-4.6132,-4.6198,-4.6215,-4.6263,-4.6276,-4.6326,-4.6286,-4.6318,-4.6325,-4.6332,-4.6342,-4.6106,-4.6334,-4.6333,-4.6332,-4.6332,-4.6331,0,-4.6076,-4.6084,-4.6134,-4.6174,-4.6216,-4.617,-4.6198,-4.6235,-4.6295,-4.6315,-4.6355,-4.642,-4.647,-4.6465,-4.651,-4.6551,-4.653,-4.6563,-4.6558,-4.6559,-4.6377,-4.6352,-4.6579,-4.6579,-4.6579,-4.6579,-4.6579,-4.6579,-4.6202,-4.6294,-4.6283,-4.6382,-4.6389,-4.6454,-4.6473,-4.6497,-4.6513,-4.6588,-4.6629,-4.6626,-4.6636,-4.6681,-4.6724,-4.6721,-4.6738,-4.6779,-4.6768,-4.6597,-4.6572,-4.6549,-4.6525,-4.6785,-4.6785,-4.6945,-4.6946,-4.6948]},{"header":{"parameterUnit":"m.s-1","parameterCategory":1,"la1":30.2991,"la2":30.254,"lo1":-89.0895,"lo2":-89.0444,"dy":0.0017,"dx":0.0017,"nx":28,"ny":28,"refTime":"2024-10-16T21:00:00:Z","depth":0,"parameterNumber":3,"parameterNumberName":"V-component_of_WINDS"},"data":[0,0,0,0,0,0,0,0,0,0,0,0,0,0,0,0,0,0,0,0,0,0,0,0,0,0,0,0,0,0,0,0,0,0,0,0,0,0,0,0,0,0,0,0,0,0,0,0,0,0,0,0,0,0,0,0,0,0,-2.7511,-2.7511,0,-2.7554,-2.7554,-2.7555,-2.7529,-2.7528,-2.7527,-2.7525,-2.7567,-2.7569,-2.7572,0,0,0,0,0,0,0,0,0,0,0,0,0,-2.7404,-2.7406,-2.7511,-2.7511,-2.7512,-2.7554,-2.7554,-2.7555,-2.7529,-2.7528,-2.7526,-2.7525,-2.7567,-2.7569,-2.7572,0,0,0,0,0,0,0,0,0,0,0,0,0,-2.7449,-2.7407,-2.7511,-2.7504,-2.7504,-2.7553,-2.7554,-2.7555,-2.753,-2.7528,-2.7526,-2.7524,-2.7566,-2.7569,-2.7572,-2.763,0,0,-2.7583,-2.7584,0,0,0,0,0,0,0,0,-2.7446,-2.7453,-2.7505,-2.7505,-2.7505,-2.7534,-2.7532,-2.758,-2.753,-2.752,-2.7525,-2.7523,-2.7558,-2.7562,-2.7574,-2.7632,-2.7634,-2.7583,-2.7585,-2.7586,-2.7587,0,0,0,0,0,0,0,-2.7443,-2.7451,-2.7528,-2.7506,-2.7506,-2.7498,-2.7503,-2.7541,-2.7548,-2.7521,-2.7519,-2.7524,-2.7557,-2.757,-2.7574,-2.7634,-2.7583,-2.7586,-2.7588,-2.7589,-2.7739,-2.7741,0,0,0,0,0,0,-2.7441,-2.7449,-2.7526,-2.7529,-2.7471,-2.7502,-2.7507,-2.7527,-2.7548,-2.7549,-2.7526,-2.7523,-2.7565,-2.757,-2.7576,-2.7643,-2.7586,-2.759,-2.7591,-2.7737,-2.774,-2.7742,0,0,0,0,0,0,-2.7439,-2.7448,-2.7525,-2.7488,-2.7498,-2.7505,-2.7528,-2.7528,-2.7541,-2.7552,-2.7553,-2.7538,-2.7564,-2.7571,-2.7616,-2.7644,-2.7591,-2.7594,-2.7735,-2.7738,-2.7741,-2.7778,0,0,0,0,0,0,-2.7436,-2.7448,-2.7471,-2.7489,-2.75,-2.7565,-2.753,-2.7531,-2.7548,-2.7544,-2.7564,-2.7565,-2.7563,-2.7611,-2.7619,-2.7647,-2.7597,-2.7732,-2.7736,-2.774,-2.7774,-2.7782,-2.7788,0,0,0,0,0,-2.7432,-2.7479,-2.7472,-2.7481,-2.7528,-2.7567,-2.7573,-2.7571,-2.755,-2.7572,-2.7579,-2.7564,-2.764,-2.7616,-2.7625,-2.7655,-2.7731,-2.7735,-2.7739,-2.7771,-2.7781,-2.7788,0,0,0,0,0,0,-2.7464,-2.7482,-2.7474,-2.7528,-2.7546,-2.7563,-2.7591,-2.7581,-2.7605,-2.76,-2.7596,-2.76,-2.7647,-2.7655,-2.7629,-2.771,-2.7682,-2.7688,-2.7703,-2.7712,-2.7719,-2.7715,-2.76,0,0,0,0,0,-2.7477,-2.7508,-2.7522,-2.7569,-2.7578,-2.7583,-2.76,-2.7596,-2.7615,-2.7622,-2.7632,-2.7649,-2.7677,-2.7695,-2.7721,-2.7776,-2.7779,-2.78,-2.7807,-2.7813,-2.7818,-2.7846,-2.7855,-2.7756,-2.7756,-2.7756,0,0,-2.7505,-2.7519,-2.7538,-2.7575,-2.7589,-2.762,-2.759,-2.7624,-2.7646,-2.7627,-2.767,-2.7678,-2.7697,-2.7747,-2.7769,-2.7755,-2.7846,-2.7819,-2.7823,-2.7825,-2.7851,-2.7861,-2.7869,-2.7759,-2.7759,-2.7758,0,0,-2.7571,-2.7585,-2.7625,-2.7639,-2.766,-2.7662,-2.7672,-2.769,-2.7694,-2.7737,-2.7723,-2.7749,-2.7797,-2.781,-2.7824,-2.7893,-2.788,-2.7902,-2.7938,-2.7965,-2.7973,-2.798,-2.8003,-2.8011,-2.7907,-2.7907,-2.7907,0,-2.7602,-2.7649,-2.7646,-2.7681,-2.7697,-2.7681,-2.772,-2.7734,-2.7762,-2.7773,-2.7757,-2.7816,-2.7828,-2.7879,-2.7896,-2.7908,-2.7917,-2.7899,-2.7972,-2.7979,-2.7985,-2.8007,-2.8016,-2.791,-2.7909,-2.7909,-2.7909,0,-2.7686,-2.7718,-2.7747,-2.7775,-2.7794,-2.7831,-2.7833,-2.7852,-2.7847,-2.7851,-2.7894,-2.7908,-2.7935,-2.7947,-2.7943,-2.7998,-2.7989,-2.7973,-2.7944,-2.7997,-2.8017,-2.8026,-2.7913,-2.7912,-2.7912,-2.7911,0,0,-2.7772,-2.7797,-2.7808,-2.7819,-2.7841,-2.7865,-2.7901,-2.7928,-2.7944,-2.7964,-2.7992,-2.8032,-2.8017,-2.8032,-2.8029,-2.8053,-2.8104,-2.8033,-2.8034,-2.8045,-2.8164,-2.8175,-2.8185,-2.8097,-2.8098,-2.8099,-2.8162,0,-2.7838,-2.7901,-2.7899,-2.7956,-2.7985,-2.797,-2.8001,-2.8016,-2.8021,-2.8045,-2.8049,-2.8077,-2.8056,-2.8065,-2.8088,-2.8093,-2.8128,-2.8089,-2.8121,-2.8123,-2.8116,-2.8196,-2.8208,-2.8266,-2.817,-2.8171,-2.8172,0,-2.7923,-2.7946,-2.8006,-2.8022,-2.8034,-2.8061,-2.8085,-2.8109,-2.8126,-2.8127,-2.8144,-2.8136,-2.817,-2.8141,-2.8187,-2.8161,-2.8174,-2.8178,-2.8181,-2.8182,-2.815,-2.8198,-2.8285,-2.8293,-2.8185,-2.8184,-2.8183,0,-2.7978,-2.8024,-2.8065,-2.8076,-2.8095,-2.8115,-2.8124,-2.8139,-2.8155,-2.8175,-2.8185,-2.821,-2.8223,-2.8241,-2.824,-2.8219,-2.8286,-2.8257,-2.8287,-2.8287,-2.83,-2.8299,-2.8389,-2.8312,-2.8311,-2.8311,-2.8311,0,-2.8051,-2.8088,-2.809,-2.8115,-2.8156,-2.8153,-2.8192,-2.8199,-2.8213,-2.8238,-2.8227,-2.8251,-2.8248,-2.8272,-2.8271,-2.8308,-2.8315,-2.8316,-2.8314,-2.8316,-2.8315,-2.8323,-2.8318,-2.8314,-2.8313,-2.8313,-2.8312,0,-2.8118,-2.8121,-2.8165,-2.818,-2.8185,-2.8214,-2.8226,-2.8249,-2.8252,-2.8285,-2.8292,-2.8297,-2.8324,-2.8325,-2.8356,-2.8355,-2.84,-2.8396,-2.8395,-2.8393,-2.8422,-2.8418,-2.8518,-2.853,-2.8447,-2.8447,-2.8448,0,-2.8164,-2.8192,-2.821,-2.8226,-2.8236,-2.8263,-2.8279,-2.8277,-2.8294,-2.8314,-2.8335,-2.8361,-2.8382,-2.8425,-2.8431,-2.8455,-2.8449,-2.8483,-2.8453,-2.8452,-2.8447,-2.8445,-2.8447,-2.8488,-2.8489,-2.849,-2.849,0,-2.8244,-2.8243,-2.8267,-2.8291,-2.8311,-2.833,-2.8347,-2.8361,-2.836,-2.8379,-2.8407,-2.8423,-2.8455,-2.848,-2.8503,-2.8511,-2.85,-2.85,-2.8507,-2.8508,-2.8506,-2.8505,-2.8409,-2.8497,-2.8496,-2.8496,-2.8496,-2.8495,-2.83,-2.8324,-2.8339,-2.8366,-2.8379,-2.8395,-2.8417,-2.8423,-2.8446,-2.8472,-2.8469,-2.8499,-2.8514,-2.8543,-2.8553,-2.8576,-2.8564,-2.8576,-2.8578,-2.8581,-2.8583,-2.8503,-2.858,-2.858,-2.858,-2.8579,-2.8579,0,-2.8378,-2.8387,-2.8411,-2.8436,-2.8456,-2.8445,-2.8463,-2.848,-2.8508,-2.8522,-2.8543,-2.8574,-2.8598,-2.8606,-2.8629,-2.8646,-2.8641,-2.8652,-2.865,-2.8651,-2.8593,-2.8583,-2.8655,-2.8655,-2.8655,-2.8655,-2.8655,-2.8655,-2.842,-2.8459,-2.846,-2.8504,-2.8513,-2.8543,-2.8554,-2.8568,-2.858,-2.8615,-2.8635,-2.864,-2.8652,-2.8676,-2.8697,-2.8698,-2.8707,-2.8719,-2.8718,-2.8663,-2.8656,-2.8648,-2.8639,-2.8721,-2.8721,-2.8774,-2.8775,-2.8775]}]]